KI0MQ Weather Reports


time (UTC)temp
F
wind
direction
speed
knots
gust
knots
rain 1hr
in
rain 24hr
in
rain mn
in
humidity
%
barometer
mb
20260901112503 74 0 0.0 0.0 0.00 0.00 0.00 90 1012.4
20260901111508 75 0 0.0 0.0 0.00 0.00 0.00 90 1012.3
20260901111003 75 0 0.0 0.0 0.00 0.00 0.00 90 1012.3
20260901110503 75 0 0.0 0.0 0.00 0.00 0.00 90 1012.4
20260901110008 75 0 0.0 0.0 0.00 0.00 0.00 90 1012.5
20260901105503 76 0 0.0 0.0 0.00 0.00 0.00 90 1012.5
20260901105003 76 0 0.0 0.0 0.00 0.00 0.00 90 1012.4
20260901104508 76 0 0.0 0.0 0.00 0.00 0.00 90 1012.5
20260901104003 76 0 0.0 0.0 0.00 0.00 0.00 90 1012.5
20260901103503 76 0 0.0 0.0 0.00 0.00 0.00 90 1012.5
20260901103008 76 221 0.0 0.9 0.00 0.00 0.00 90 1012.4
20260901102503 76 220 0.0 0.9 0.00 0.00 0.00 90 1012.6
20260901102003 76 215 0.0 0.9 0.00 0.00 0.00 90 1012.6
20260901101508 76 0 0.0 0.0 0.00 0.00 0.00 91 1012.7
20260901100503 76 0 0.0 0.0 0.00 0.00 0.00 91 1012.7
20260901100008 76 0 0.0 0.0 0.00 0.00 0.00 91 1012.7
20260901095503 76 0 0.0 0.0 0.00 0.00 0.00 92 1012.7
20260901095004 76 0 0.0 0.0 0.00 0.00 0.00 92 1012.8
20260901094003 76 0 0.0 0.0 0.00 0.00 0.00 93 1012.8
20260901093503 76 213 0.0 0.9 0.00 0.00 0.00 93 1012.8
20260901093008 76 213 0.0 0.9 0.00 0.00 0.00 94 1012.8
20260901092503 75 0 0.0 0.0 0.00 0.00 0.00 94 1012.9
20260901092003 75 0 0.0 0.0 0.00 0.00 0.00 95 1012.9
20260901091508 75 0 0.0 0.0 0.00 0.00 0.00 96 1012.8
20260901091004 74 0 0.0 0.0 0.00 0.00 0.00 96 1012.8
20260901090504 74 0 0.0 0.0 0.00 0.00 0.00 96 1012.8
20260901090008 74 0 0.0 0.0 0.00 0.00 0.00 96 1012.8
20260901084003 74 0 0.0 0.0 0.00 0.00 0.00 95 1012.7
20260901083503 74 0 0.0 0.0 0.00 0.00 0.00 95 1012.6
20260901083008 74 0 0.0 0.0 0.00 0.00 0.00 95 1012.7
20260901082003 74 0 0.0 0.0 0.00 0.00 0.00 95 1012.6
20260901081508 74 0 0.0 0.0 0.00 0.00 0.00 95 1012.6
20260901080008 75 0 0.0 0.0 0.00 0.00 0.00 94 1012.7
20260901075503 75 0 0.0 0.0 0.00 0.00 0.00 94 1012.8
20260901075004 75 0 0.0 0.0 0.00 0.00 0.00 94 1012.8
20260901074508 75 0 0.0 0.0 0.00 0.00 0.00 94 1012.8
20260901073504 75 0 0.0 0.0 0.00 0.00 0.00 94 1012.8
20260901072503 75 0 0.0 0.0 0.00 0.00 0.00 94 1012.8
20260901071003 75 0 0.0 0.0 0.00 0.00 0.00 94 1012.9
20260901070503 75 0 0.0 0.0 0.00 0.00 0.00 94 1012.9
20260901070008 76 0 0.0 0.0 0.00 0.00 0.00 94 1012.9
20260901065503 75 0 0.0 0.0 0.00 0.00 0.00 94 1013.0
20260901065004 75 0 0.0 0.0 0.00 0.00 0.00 93 1012.9
20260901064508 76 0 0.0 0.0 0.00 0.00 0.00 93 1012.9
20260901064003 76 0 0.0 0.0 0.00 0.00 0.00 93 1013.0
20260901063504 76 0 0.0 0.0 0.00 0.00 0.00 93 1013.0
20260901062503 76 0 0.0 0.0 0.00 0.00 0.00 93 1013.0
20260901061508 76 0 0.0 0.0 0.00 0.00 0.00 93 1013.0
20260901061004 76 0 0.0 0.0 0.00 0.00 0.00 93 1013.1
20260901060503 76 0 0.0 0.0 0.00 0.00 0.00 93 1013.1
20260901060009 76 0 0.0 0.0 0.00 0.00 0.00 93 1013.1
20260901055503 76 0 0.0 0.0 0.00 0.00 0.00 93 1013.1
20260901054003 76 0 0.0 0.0 0.00 0.00 0.00 93 1013.2
20260901053504 76 0 0.0 0.0 0.00 0.00 0.00 92 1013.3
20260901053009 76 0 0.0 0.0 0.00 0.00 0.00 92 1013.3
20260901052503 76 0 0.0 0.0 0.00 0.00 0.00 92 1013.3
20260901052003 77 0 0.0 0.0 0.00 0.00 0.00 92 1013.2
20260901051508 77 0 0.0 0.0 0.00 0.00 0.00 92 1013.2
20260901051004 77 0 0.0 0.0 0.00 0.00 0.00 92 1013.1
20260901050503 77 0 0.0 0.0 0.00 0.00 0.00 91 1013.0
20260901050010 77 0 0.0 0.0 0.00 0.00 0.00 91 1013.1
20260901045003 77 0 0.0 0.0 0.00 0.00 0.00 91 1013.2
20260901044509 77 0 0.0 0.0 0.00 0.00 0.00 91 1013.2
20260901044004 77 0 0.0 0.0 0.00 0.00 0.00 90 1013.2
20260901043503 77 0 0.0 0.0 0.00 0.00 0.00 90 1013.2
20260901043008 77 0 0.0 0.0 0.00 0.00 0.00 90 1013.2
20260901042003 78 0 0.0 0.0 0.00 0.00 0.00 90 1013.2
20260901041003 78 0 0.0 0.0 0.00 0.00 0.00 89 1013.2
20260901040503 78 0 0.0 0.0 0.00 0.00 0.00 89 1013.3
20260901040008 78 0 0.0 0.0 0.00 0.00 0.00 89 1013.2
20260901035504 78 0 0.0 0.0 0.00 0.00 0.00 89 1013.2
20260901035003 78 0 0.0 0.0 0.00 0.00 0.00 88 1013.2
20260901034508 78 0 0.0 0.0 0.00 0.00 0.00 88 1013.1
20260901034003 78 0 0.0 0.0 0.00 0.00 0.00 88 1013.0
20260901032503 78 0 0.0 0.0 0.00 0.00 0.00 87 1012.9
20260901032003 78 0 0.0 0.0 0.00 0.00 0.00 86 1012.9
20260901031004 78 0 0.0 0.0 0.00 0.00 0.00 87 1012.9
20260901030504 79 0 0.0 0.0 0.00 0.00 0.00 86 1012.9
20260901030008 79 0 0.0 0.0 0.00 0.00 0.00 86 1012.9
20260901025503 79 0 0.0 0.0 0.00 0.00 0.00 86 1012.8
20260901025004 79 0 0.0 0.0 0.00 0.00 0.00 86 1012.7
20260901024508 79 0 0.0 0.0 0.00 0.00 0.00 86 1012.7
20260901024003 79 0 0.0 0.0 0.00 0.00 0.00 86 1012.6
20260901023503 80 0 0.0 0.0 0.00 0.00 0.00 85 1012.5
20260901023008 80 0 0.0 0.0 0.00 0.00 0.00 85 1012.5
20260901022504 80 0 0.0 0.0 0.00 0.00 0.00 85 1012.5
20260901022003 80 0 0.0 0.0 0.00 0.00 0.00 84 1012.5
20260901021003 80 0 0.0 0.0 0.00 0.00 0.00 84 1012.3
20260901020503 81 0 0.0 0.0 0.00 0.00 0.00 84 1012.3
20260901020008 81 0 0.0 0.0 0.00 0.00 0.00 84 1012.2
20260901015504 81 0 0.0 0.0 0.00 0.00 0.00 83 1012.2
20260901015004 81 0 0.0 0.0 0.00 0.00 0.00 83 1012.1
20260901014508 82 0 0.0 0.0 0.00 0.00 0.00 83 1012.0
20260901012503 83 0 0.0 0.0 0.00 0.00 0.00 81 1012.0
20260901012004 83 0 0.0 0.0 0.00 0.00 0.00 81 1012.0
20260901011004 84 0 0.0 0.0 0.00 0.00 0.00 80 1012.1
20260901010503 84 0 0.0 0.0 0.00 0.00 0.00 79 1012.1
20260901010009 84 0 0.0 0.0 0.00 0.00 0.00 79 1012.1
20260901005503 85 0 0.0 0.0 0.00 0.00 0.00 78 1012.2
20260901005003 85 0 0.0 0.0 0.00 0.00 0.00 78 1012.2
20260901004508 85 0 0.0 0.0 0.00 0.00 0.00 77 1012.2
20260901004003 86 0 0.0 0.0 0.00 0.00 0.00 76 1012.2
20260901003504 86 0 0.0 0.0 0.00 0.00 0.00 75 1012.3
20260901003008 86 0 0.0 0.0 0.00 0.00 0.00 75 1012.3
20260901002503 87 0 0.0 0.0 0.00 0.00 0.00 74 1012.3
20260901002003 87 0 0.0 0.0 0.00 0.00 0.00 73 1012.3
20260901001003 88 0 0.0 0.0 0.00 0.00 0.00 72 1012.3
20260901000504 88 0 0.0 0.0 0.00 0.00 0.00 72 1012.3
20260901000008 88 0 0.0 0.0 0.00 0.00 0.00 71 1012.3
20260831235503 88 0 0.0 0.0 0.00 0.00 0.00 70 1012.3
20260831234004 88 0 0.0 0.0 0.00 0.00 0.00 74 1012.4
20260831233503 88 164 0.0 1.7 0.00 0.00 0.00 71 1012.3
20260831233008 88 164 0.0 1.7 0.00 0.00 0.00 71 1012.3
20260831232503 88 0 0.0 0.0 0.00 0.00 0.00 72 1012.3
20260831232003 88 0 0.0 0.0 0.00 0.00 0.00 72 1012.4
20260831231508 88 0 0.0 0.0 0.00 0.00 0.00 73 1012.3
20260831230504 88 0 0.0 0.0 0.00 0.00 0.00 74 1012.2
20260831230008 88 0 0.0 0.0 0.00 0.00 0.00 74 1012.3
20260831225503 88 0 0.0 0.0 0.00 0.00 0.00 73 1012.4
20260831225003 88 0 0.0 0.0 0.00 0.00 0.00 73 1012.4
20260831224508 88 181 0.0 0.9 0.00 0.00 0.00 72 1012.2
20260831224003 88 174 0.0 1.7 0.00 0.00 0.00 72 1012.3
20260831223504 88 169 0.0 1.7 0.00 0.00 0.00 71 1012.3
20260831223009 89 163 0.0 1.7 0.00 0.00 0.00 70 1012.3
20260831222003 89 177 0.9 1.7 0.00 0.00 0.00 70 1012.4
20260831220503 89 170 0.0 1.7 0.00 0.00 0.00 71 1012.4
20260831220009 89 168 0.0 1.7 0.00 0.00 0.00 72 1012.5
20260831215503 89 162 0.0 0.9 0.00 0.00 0.00 73 1012.4
20260831215003 89 162 0.0 1.7 0.00 0.00 0.00 73 1012.4
20260831214508 89 164 0.0 1.7 0.00 0.00 0.00 72 1012.4
20260831213503 89 182 1.7 3.5 0.00 0.00 0.00 70 1012.5
20260831213008 89 184 0.9 3.5 0.00 0.00 0.00 70 1012.6
20260831212503 90 189 0.9 2.6 0.00 0.00 0.00 69 1012.6
20260831212004 90 198 0.0 2.6 0.00 0.00 0.00 69 1012.6
20260831211508 90 214 0.0 1.7 0.00 0.00 0.00 71 1012.6
20260831211004 90 201 0.9 1.7 0.00 0.00 0.00 69 1012.5
20260831210008 90 214 0.9 1.7 0.00 0.00 0.00 70 1012.6
20260831205504 90 187 0.9 3.5 0.00 0.00 0.00 70 1012.7
20260831205003 90 187 0.9 3.5 0.00 0.00 0.00 70 1012.7
20260831204003 90 210 0.9 3.5 0.00 0.00 0.00 68 1012.7
20260831203503 90 205 0.9 3.5 0.00 0.00 0.00 69 1012.8
20260831203008 91 218 0.9 1.7 0.00 0.00 0.00 68 1012.9
20260831202004 90 190 0.9 2.6 0.00 0.00 0.00 68 1013.0
20260831201508 91 202 0.9 2.6 0.00 0.00 0.00 68 1012.9
20260831201003 91 188 0.9 2.6 0.00 0.00 0.00 67 1012.9
20260831200503 91 184 0.9 3.5 0.00 0.00 0.00 67 1012.9
20260831195004 92 211 0.0 2.6 0.00 0.00 0.00 64 1012.9
20260831194003 92 183 0.9 2.6 0.00 0.00 0.00 64 1013.0
20260831193503 92 200 0.9 2.6 0.00 0.00 0.00 68 1013.1
20260831193008 91 292 0.0 2.6 0.00 0.00 0.00 67 1013.0
20260831192003 91 185 0.9 3.5 0.00 0.00 0.00 66 1012.9
20260831191003 91 235 0.0 1.7 0.00 0.00 0.00 67 1012.9
20260831190503 91 190 0.9 2.6 0.00 0.00 0.00 66 1012.9
20260831190008 90 206 0.9 2.6 0.00 0.00 0.00 64 1012.9
20260831185004 90 240 0.9 3.5 0.00 0.00 0.00 65 1013.0
20260831184508 90 288 0.9 4.3 0.00 0.00 0.00 65 1013.0
20260831184003 90 322 0.9 4.3 0.00 0.00 0.00 66 1013.0
20260831183504 90 150 0.0 1.7 0.00 0.00 0.00 69 1013.0
20260831183008 89 201 0.0 2.6 0.00 0.00 0.00 66 1013.0
20260831182504 88 195 0.0 2.6 0.00 0.00 0.00 68 1013.0
20260831182004 88 205 0.0 1.7 0.00 0.00 0.00 69 1013.0
20260831181508 88 266 0.0 0.9 0.00 0.00 0.00 68 1013.0
20260831181003 88 181 0.0 1.7 0.00 0.00 0.00 68 1013.0
20260831180009 88 223 0.9 2.6 0.00 0.00 0.00 72 1012.8
20260831175503 87 346 0.0 1.7 0.00 0.00 0.00 71 1012.9
20260831175004 87 349 0.0 1.7 0.00 0.00 0.00 69 1012.9
20260831174508 87 175 0.0 0.9 0.00 0.00 0.00 69 1012.9
20260831174003 86 184 0.0 0.9 0.00 0.00 0.00 70 1012.9
20260831173503 86 190 0.0 0.9 0.00 0.00 0.00 72 1013.0
20260831172504 85 358 0.0 3.5 0.00 0.00 0.00 73 1013.0
20260831171508 84 325 0.0 2.6 0.00 0.00 0.00 74 1012.9
20260831170504 83 302 0.9 3.5 0.00 0.00 0.00 77 1012.8
20260831170008 82 322 0.9 3.5 0.00 0.00 0.00 77 1012.8
20260831165503 82 347 0.9 3.5 0.00 0.00 0.00 77 1012.7
20260831165003 82 1 0.9 4.3 0.00 0.00 0.00 80 1012.7
20260831164508 82 349 0.9 4.3 0.00 0.00 0.00 78 1012.7
20260831164003 82 346 0.9 4.3 0.00 0.00 0.00 79 1012.7
20260831163503 81 343 0.9 4.3 0.00 0.00 0.00 80 1012.7
20260831162503 81 309 0.0 1.7 0.00 0.00 0.00 80 1012.7
20260831162004 80 300 0.9 2.6 0.00 0.00 0.00 81 1012.7
20260831161508 80 288 0.0 2.6 0.00 0.00 0.00 81 1012.7
20260831161003 79 304 0.0 1.7 0.00 0.00 0.00 81 1012.6
20260831160503 79 321 0.9 3.5 0.00 0.00 0.00 82 1012.6
20260831160008 79 338 1.7 3.5 0.00 0.00 0.00 81 1012.3
20260831155504 79 328 1.7 3.5 0.00 0.00 0.00 82 1012.2
20260831155004 79 327 1.7 4.3 0.00 0.00 0.00 82 1012.0
20260831154508 78 326 0.9 4.3 0.00 0.00 0.00 83 1012.1
20260831153503 78 347 0.9 3.5 0.00 0.00 0.00 82 1011.9
20260831153009 78 349 0.9 3.5 0.00 0.00 0.00 82 1012.1
20260831152503 78 325 0.0 2.6 0.00 0.00 0.00 83 1012.2
20260831152003 78 316 0.9 2.6 0.00 0.00 0.00 83 1011.9
20260831151003 78 334 0.9 3.5 0.00 0.00 0.00 84 1012.0
20260831150503 77 323 0.0 3.5 0.00 0.00 0.00 84 1012.0
20260831145504 77 339 0.0 2.6 0.00 0.00 0.00 85 1011.8
20260831145003 77 286 0.0 1.7 0.00 0.00 0.00 86 1011.9
20260831144508 77 0 0.0 0.0 0.00 0.00 0.00 86 1012.2
20260831143503 77 0 0.0 0.0 0.00 0.00 0.00 87 1011.4
20260831143008 77 0 0.0 0.0 0.00 0.00 0.00 88 1011.3
20260831142503 76 0 0.0 0.0 0.00 0.00 0.00 88 1011.4
20260831142003 76 0 0.0 0.0 0.00 0.00 0.00 89 1011.5
20260831141508 76 210 0.0 0.9 0.00 0.00 0.00 89 1011.5
20260831141003 76 210 0.0 0.9 0.00 0.00 0.00 89 1011.8
20260831140503 76 210 0.0 1.7 0.00 0.00 0.00 89 1011.7
20260831140008 76 209 0.0 1.7 0.00 0.00 0.00 90 1011.4
20260831135504 76 172 0.9 2.6 0.00 0.00 0.00 89 1011.3
20260831135003 76 182 0.9 4.3 0.00 0.00 0.00 89 1011.2
20260831134508 76 199 0.9 4.3 0.00 0.00 0.00 89 1010.6
20260831134003 76 326 1.7 7.8 0.00 0.00 0.00 88 1010.6
20260831133503 76 330 1.7 7.8 0.00 0.00 0.00 88 1011.1
20260831133008 76 316 1.7 7.0 0.00 0.00 0.00 88 1011.6
20260831132503 76 319 2.6 7.0 0.00 0.00 0.00 89 1011.9
20260831132003 76 326 2.6 7.8 0.00 0.00 0.00 89 1011.5
20260831131508 76 321 0.9 7.8 0.00 0.00 0.00 90 1011.8
20260831131003 75 303 0.0 7.0 0.00 0.00 0.00 92 1012.2
20260831130007 75 356 0.0 0.9 0.00 0.00 0.00 93 1011.7
20260831125504 75 356 0.0 0.9 0.00 0.00 0.00 94 1011.8
20260831124507 74 6 0.0 0.9 0.00 0.00 0.00 95 1011.6
20260831124004 74 6 0.0 0.9 0.00 0.00 0.00 95 1011.9
20260831123503 74 0 0.0 0.0 0.00 0.00 0.00 96 1011.6
20260831123008 74 0 0.0 0.0 0.00 0.00 0.00 97 1011.4
20260831122503 74 0 0.0 0.0 0.00 0.00 0.00 97 1011.3
20260831122003 73 0 0.0 0.0 0.00 0.00 0.00 97 1011.1
20260831121507 73 0 0.0 0.0 0.00 0.00 0.00 97 1011.1
20260831121003 73 0 0.0 0.0 0.00 0.00 0.00 97 1011.0
20260831120504 73 0 0.0 0.0 0.00 0.00 0.00 97 1010.7
20260831120008 73 0 0.0 0.0 0.00 0.00 0.00 97 1010.6
20260831115504 73 0 0.0 0.0 0.00 0.00 0.00 97 1010.7
20260831114507 73 0 0.0 0.0 0.00 0.00 0.00 97 1010.4
20260831114003 73 0 0.0 0.0 0.00 0.00 0.00 96 1010.3
20260831113504 73 0 0.0 0.0 0.00 0.00 0.00 96 1010.2